{"data":{"norad_id":55456,"intl_designator":"2023-015H","name":"STARLINK-5058","alt_names":[],"object_type":"PAYLOAD","status":"ACTIVE","operator":null,"country":"US","launch_date":"2023-02-02","launch_site_code":"AFETR","launch_vehicle":null,"mission":null,"orbit_class":"UNKNOWN","rcs_meters":null,"size_class":null,"mass_kg":null,"dimensions":null,"purposes":["comms"],"wikipedia_slug":null,"has_3d_model":false,"image_url":null,"decayed_at":null,"tle_current":{"epoch":"2026-05-24T16:09:28.124352Z","epoch_age_seconds":99485,"freshness":"FRESH","line1":"1 55456U 23015H   26144.67324218  .00000925  00000+0  43128-4 0  9993","line2":"2 55456  43.0009 259.5333 0001274 275.0497  85.0210 15.27572846182342","mean_motion":15.27572846,"eccentricity":0.0001274,"inclination_deg":43.0009,"raan_deg":259.5333,"arg_perigee_deg":275.0497,"mean_anomaly_deg":85.021,"bstar":4.3128e-5,"rev_number":18234,"period_min":94.267190188061,"perigee_km":482.19639993513,"apogee_km":483.94463561066,"semimajor_km":6861.2075177729,"source":"CELESTRAK","updated_at":"2026-05-25T13:38:17.803573Z"}}}